Regional Weather Roundup
Issued by NWS Sioux Falls, SD

Home | Current Version | Previous Version | Text Only | Print | Product List | Glossary On
Versions: 1 2 3 4 5 6 7 8 9 10 11 12 13 14 15 16 17 18 19 20 21 22 23 24 25 26 27 28 29 30 31 32 33 34 35 36 37 38 39 40 41 42 43 44 45 46 47 48 49 50
000
ASUS43 KFSD 221310
RWRFSD

WEATHER ROUNDUP FOR SE SOUTH DAKOTA/SW MINNESOTA/NW IOWA
NATIONAL WEATHER SERVICE SIOUX FALLS SD
800 AM CDT FRI AUG 22 2014

NOTE: "FAIR" INDICATES FEW OR NO CLOUDS BELOW 12,000 FEET WITH NO
SIGNIFICANT WEATHER AND OR OBSTRUCTIONS TO VISIBILITY.


SDZ038>040-050-052>070-221400-
SOUTHEAST SOUTH DAKOTA

CITY           SKY/WX    TMP DP  RH WIND       PRES   REMARKS
CHAMBERLAIN    PTSUNNY   68  65  90 N5        30.00R
HURON          SUNNY     62  62 100 NW3       29.97S FOG
MADISON        FOG       63  63 100 CALM      29.97R VSB<1/4
MITCHELL       FOG       65  65 100 N6        29.97R VSB<1/4
SIOUX FALLS    MOSUNNY   68  66  93 NE3       29.94S
WINNER         FAIR      66  63  90 N7        30.01R
YANKTON        SUNNY     66  66 100 N3        29.93R
$$

MNZ071-072-080-081-089-090-097-098-221400-
SOUTHWEST MINNESOTA

CITY           SKY/WX    TMP DP  RH WIND       PRES   REMARKS
FAIRMONT       CLOUDY    70  66  88 MISG      29.94R VSB<1/4
JACKSON        FOG       72  68  88 NE3       29.95S VSB 1/4
LUVERNE        SUNNY     68  64  88 CALM      29.95R FOG
MARSHALL       CLOUDY    66  64  94 CALM      29.94R VSB<1/4
MONTEVIDEO     CLOUDY    72  72 100 CALM      29.94F FOG
PIPESTONE      SUNNY     70  66  88 N3        29.96R
REDWOOD FALLS  CLOUDY    71  71 100 N3        29.92F FOG
TRACY          FOG       69  68  97 CALM      29.96R VSB<1/4
WINDOM         DRZL/FOG  72  70  94 NE5       29.95R VSB<1/4
WORTHINGTON    MOSUNNY   70  10  10 NE6       29.96R
$$

IAZ001>003-012>014-020>022-031-032-NEZ013-014-SDZ071-221400-
NORTHWEST IOWA

CITY           SKY/WX    TMP DP  RH WIND       PRES   REMARKS
CHEROKEE       SUNNY     71  71 100 N5        29.92R
DENISON        SUNNY     72  72 100 CALM      29.91R
ESTHERVILLE    FOG       70  70 100 N7        29.94R VSB<1/4
LE MARS          N/A    N/A N/A N/A MISG      29.92S
ORANGE CITY    SUNNY     73  66  78 NE5       29.93S
SHELDON        SUNNY     68  68 100 CALM      29.93R
SIOUX CITY     SUNNY     75  71  87 CALM      29.91R
SPENCER        FOG       70  68  93 N3        29.94R VSB 3/4
STORM LAKE     MOSUNNY   72  72 100 N7        29.93R FOG
$$

ABBREVIATIONS USED IN REMARKS
   TC - TEMPERATURE IN CELSIUS
  WCI - WIND CHILL INDEX
   HX - HEAT INDEX
  VSB - VISIBILITY



USA.gov is the U.S. government's official web portal to all federal, state and local government web resources and services.